Location: Brunembert
(50.7122°N, 1.8935°E)
Time: 05:05:01
(UTC+00:00)

ATLAS 5 CENTAUR R/B - Pass Details

Date: 22 April 2021
Orbit: 516 x 1141 km, 63.3° (Epoch: 02 May)

Event Time Altitude Azimuth Distance (km) Brightness Sun altitude
Rises 19:44:55 0° 276° (W) 2,782 6.3 -7.3°
Reaches altitude 10° 19:47:26 10° 292° (WNW) 1,960 5.8 -7.7°
Maximum altitude 19:50:56 22° 345° (NNW) 1,432 4.1 -8.2°
Drops below altitude 10° 19:54:52 10° 36° (NE) 2,235 4.4 -8.7°
Sets 19:57:58 0° 51° (NE) 3,289 5.1 -9.1°
